Location: Scenic
(43.7797°N, 102.5549°W)
Time: 01:39:26
(UTC-06:00)

OTV 5 (USA 277) - Visible Passes

Search period start: 23 July 2018 00:00
Search period end: 02 August 2018 00:00
Orbit: 312 x 321 km, 54.5° (Epoch: 05 July)

Date Brightness Start Highest point End Pass type
(mag) Time Alt. Az. Time Alt. Az. Time Alt. Az.
29 Jul ? 04:06:25 10° SSE 04:07:33 12° SE 04:08:41 10° ESE visible
30 Jul ? 04:20:20 18° S 04:21:47 30° SE 04:24:13 10° ENE visible
31 Jul ? 04:34:20 19° SW 04:36:09 90° N 04:38:51 10° NE visible
01 Aug ? 03:17:25 16° ESE 03:17:25 16° ESE 03:18:31 10° E visible
01 Aug ? 04:48:17 11° W 04:50:39 35° NNW 04:53:11 10° NE visible
